Location: Newark
(32.9167°N, 112.9667°W)
Time: 03:35:13
(UTC+00:00)

N. Korean satellite - Pass Details

Date: 28 October 2019
Orbit: 456 x 506 km, 97.2° (Epoch: 18 November)

Event Time Altitude Azimuth Distance (km) Brightness Sun altitude
Rises 12:26:29 0° 34° (NNE) 2,593 10.7 -17.3°
Reaches altitude 10° 12:29:17 10° 57° (ENE) 1,711 10.1 -16.7°
Maximum altitude 12:31:30 15° 95° (E) 1,415 10.1 -16.3°
Drops below altitude 10° 12:33:43 10° 131° (SE) 1,711 10.1 -15.8°
Sets 12:36:30 0° 155° (SSE) 2,592 10.7 -15.2°
